User: anonymous   Login
Location: ??????
(38.3184°N, 23.6932°E)
Time: 23:50:04
(UTC+00:00)
Language:

Okean O Rocket - Orbit

View from above orbital plane
View from above orbital plane
View from above satellite
View from above satellite

Ground track
Ground track

The orbit data is extracted from the following two-line orbital elements,

1 25861U 99039B   22026.60432163  .00000138  00000-0  26274-4 0  9996
2 25861  98.1925  51.1566 0016846  70.5642  40.3312 14.78709363214537
Epoch (UTC): 26 January 2022 14:30:13
Eccentricity: 0.0016846
inclination: 98.1925°
perigee height: 621 km
apogee height: 645 km
right ascension of ascending node: 51.1566°
argument of perigee: 70.5642°
revolutions per day: 14.78709363
mean anomaly at epoch: 40.3312°
orbit number at epoch: 21453

The dashed part of the orbit path shows where the satellite is in the earth's shadow,  

DLR